Powrót do katalogu

COSMOS 783

AktywnyMilitariaLEO
NORAD 8458·PAYLOAD·🇷🇺 Russia

Wystrzelony Nov 28, 1975 z Plesetsk Cosmodrome

Loading…

Następne Przeloty (najbliższe 24 godziny)

TLE

ŚwieżeSource: Space-Track

Epoka: Sep 14, 2026, 06:10 UTC

1 08458U 75112A   26257.25740533  .00000090  00000-0  41745-4 0  9996
2 08458  74.0592 200.3441 0013333 251.9622 108.0077 14.33795382652953

Śledź COSMOS 783 w czasie rzeczywistym z AllMySat

Download on the App Store